Flag for U.S.A. Weather past 2 weeks in Wichita Falls, Texas, U.S.A.

Now
93 °F

Scattered clouds.


Feels Like: 101 °F
Forecast: 77 / 95 °F
Wind: 23 mph from South

Location: Wichita Falls - Sheppard Air Force Base

Current Time: Jul 6, 2015 at 5:13:33 PM

Latest Report: Jul 6, 2015 at 3:52 PM


Visibility: 10 mi

Pressure: 29.84 "Hg

Humidity: 50%

Dew point: 72 °F

Location of Wichita FallsLocation

Historic Weather in Wichita Falls — Graph

°F

Wichita Falls temperature yesterday

Maximum temperature yesterday: 94 °F (at 3:52 PM)
Minimum temperature yesterday: 76 °F (at 3:52 AM)
Average temperature yesterday: 85 °F

Past Weeks' High & Low Weather Summary

 TemperatureHumidityPressure
High94 °F (Jul 1, 3:52 PM)93% (Jun 27, 6:52 AM)30.14 "Hg (Jun 27, 6:52 AM)
Low65 °F (Jun 28, 6:52 AM)31% (Jun 27, 4:52 PM)29.79 "Hg (Jul 2, 6:52 PM)
Average82 °F64%29.94 "Hg
* Reported Jun 21 2:52 PM — Jul 6 2:52 PM, Wichita Falls, Weather by CustomWeather, © 2015

Note: Actual official high and low records may vary slightly from our data, if they occured in-between our weather recording intervals... More about our weather records

Advertising

Wichita Falls weather history for previous 24 hours

 ConditionsComfort  
Time TempWeatherWind HumidityBarometerVisibility
2:52 PM
Mon, Jul 6
90 °FPartly sunny.15 mph56%29.86 "Hg9 mi
1:52 PM90 °FPartly sunny.17 mph57%29.88 "Hg10 mi
12:52 PM88 °FPartly sunny.16 mph61%29.90 "Hg9 mi
11:52 AM86 °FMostly cloudy.21 mph65%29.90 "Hg9 mi
10:52 AM85 °FPartly sunny.20 mph68%29.91 "Hg8 mi
9:52 AM84 °FBroken clouds.20 mph70%29.91 "Hg8 mi
8:52 AM81 °FSunny.12 mph77%29.91 "Hg8 mi
7:52 AM79 °FPassing clouds.14 mph79%29.90 "Hg8 mi
6:52 AM77 °FPassing clouds.12 mph82%29.89 "Hg8 mi
5:52 AM77 °FPassing clouds.14 mph82%29.88 "Hg9 mi
4:52 AM78 °FClear.14 mph76%29.87 "Hg9 mi
3:52 AM79 °FClear.12 mph74%29.87 "Hg10 mi
2:52 AM80 °FClear.14 mph71%29.87 "Hg10 mi
1:52 AM80 °FClear.13 mph71%29.86 "Hg10 mi
12:52 AM81 °FClear.14 mph69%29.88 "Hg10 mi
11:52 PM
Sun, Jul 5
82 °FClear.17 mph65%29.88 "Hg10 mi
10:52 PM83 °FClear.14 mph61%29.88 "Hg10 mi
9:52 PM84 °FClear.14 mph59%29.86 "Hg10 mi
8:52 PM86 °FSunny.13 mph53%29.83 "Hg9 mi
7:52 PM88 °FSunny.15 mph52%29.82 "Hg10 mi
6:52 PM91 °FSunny.20 mph45%29.81 "Hg10 mi
5:52 PM93 °FPassing clouds.14 mph42%29.82 "Hg10 mi
Weather by CustomWeather, © 2015

See weather overviewHow to use our weather pages